+07,Max TemperatureF,Mean TemperatureF,Min TemperatureF,Max Dew PointF,MeanDew PointF,Min DewpointF,Max Humidity, Mean Humidity, Min Humidity, Max Sea Level PressureIn, Mean Sea Level PressureIn, Min Sea Level PressureIn, Max VisibilityMiles, Mean VisibilityMiles, Min VisibilityMiles, Max Wind SpeedMPH, Mean Wind SpeedMPH, Max Gust SpeedMPH,PrecipitationIn, CloudCover, Events, WindDirDegrees
2011-10-1,95,88,82,73,72,68,74,59,44,29.80,29.72,29.65,6,6,6,17,9,,0.00,2,Rain,215
2011-10-2,93,88,82,77,73,70,84,66,49,29.77,29.71,29.62,6,6,1,15,5,,0.00,3,Rain-Thunderstorm,256
2011-10-3,86,83,80,75,73,70,84,71,62,29.74,29.70,29.62,6,6,6,15,6,,0.00,6,Rain,301
2011-10-4,89,84,78,75,72,66,83,68,52,29.77,29.72,29.65,6,6,1,14,6,,0.00,5,Rain-Thunderstorm,292
2011-10-5,89,84,78,75,71,66,84,69,49,29.83,29.80,29.74,6,6,6,8,5,,0.00,5,Rain,293
2011-10-6,93,86,78,73,72,68,79,68,46,29.86,29.80,29.71,6,6,3,15,4,,0.00,4,Rain-Thunderstorm,293
2011-10-7,89,86,82,75,73,72,79,68,59,29.86,29.79,29.71,6,6,6,9,5,,0.00,4,Rain-Thunderstorm,305
2011-10-8,93,86,80,75,73,70,84,67,49,29.86,29.79,29.71,6,6,1,16,5,28,0.00,6,Rain-Thunderstorm,291
2011-10-9,87,84,80,75,73,70,84,69,55,29.83,29.78,29.71,6,6,6,8,4,,0.00,5,,301
2011-10-10,89,84,80,75,74,72,84,70,55,29.86,29.80,29.71,6,6,4,8,2,,0.00,3,Rain-Thunderstorm,3
2011-10-11,91,86,80,75,74,72,84,69,52,29.86,29.79,29.71,6,6,1,14,3,28,0.00,4,Rain-Thunderstorm,201
2011-10-12,91,86,80,77,74,72,84,69,55,29.86,29.78,29.68,6,6,5,15,4,,0.00,5,Rain-Thunderstorm,210
2011-10-13,89,84,80,73,72,70,79,61,55,29.83,29.77,29.68,6,6,6,17,9,,0.00,3,,228
2011-10-14,89,86,82,75,71,68,79,60,49,29.83,29.76,29.68,6,6,6,18,10,,0.00,3,,221
2011-10-15,91,86,80,77,73,68,84,68,49,29.83,29.77,29.68,6,6,1,16,6,,0.00,4,Rain,230
2011-10-16,93,88,84,77,73,70,79,62,49,29.83,29.75,29.68,6,6,6,10,5,,0.00,3,,169
2011-10-17,93,88,82,75,73,70,79,64,52,29.86,29.80,29.74,6,6,5,8,3,,0.00,4,Rain,360
2011-10-18,93,86,80,77,73,70,79,64,52,29.89,29.81,29.74,6,6,6,12,7,,0.00,2,,355
2011-10-19,93,88,82,75,72,68,74,58,46,29.80,29.75,29.68,6,6,6,15,9,,0.00,2,,356
2011-10-20,91,86,80,75,73,70,84,68,52,29.83,29.78,29.71,6,6,4,15,6,,0.00,5,Rain-Thunderstorm,25
2011-10-21,93,86,80,75,71,70,84,56,46,29.86,29.78,29.71,6,6,6,10,5,,0.00,2,,358
2011-10-22,89,84,80,75,73,70,79,69,58,29.86,29.78,29.71,6,6,1,13,3,,0.00,3,Rain-Thunderstorm,298
2011-10-23,93,84,75,75,71,66,74,57,44,29.83,29.79,29.71,6,6,6,14,5,,0.00,2,,334
2011-10-24,95,88,82,75,73,70,74,61,46,29.83,29.76,29.71,6,6,6,10,5,,0.00,3,Rain,172
2011-10-25,95,90,84,77,72,68,74,56,41,29.86,29.77,29.71,6,6,6,12,7,,0.00,2,,15
2011-10-26,95,88,80,75,72,68,79,60,41,29.86,29.79,29.71,6,6,1,20,9,,0.00,3,Rain-Thunderstorm,26
2011-10-27,93,86,80,81,71,68,79,56,44,29.83,29.78,29.71,6,6,6,10,5,,0.00,2,,41
2011-10-28,93,88,82,75,73,68,74,62,49,29.86,29.80,29.74,6,6,6,10,6,,0.00,2,,344
2011-10-29,93,88,84,75,70,66,66,53,44,29.83,29.76,29.71,6,6,6,15,10,,0.00,2,,22
2011-10-30,93,88,82,73,69,66,70,54,43,29.80,29.76,29.71,6,6,6,20,11,,0.00,3,,4
2011-10-31,91,86,82,75,69,68,74,53,46,29.80,29.77,29.71,6,6,6,21,13,,0.00,2,,20